Flag for Norway Weather past 2 weeks in Sarpsborg, Norway

Now
46 °F

Sunny.


Feels Like: 42 °F
Forecast: 41 / 62 °F
Wind: 9 mph from North

Location: Rygge

Current Time: Apr 19, 2015 at 11:08:11 AM

Latest Report: Apr 19, 2015 at 10:20 AM


Visibility: 10 mi

Pressure: 30.36 "Hg

Humidity: 62%

Dew point: 34 °F

Location of SarpsborgLocation

Historic Weather in Sarpsborg — Graph

°F

Sarpsborg temperature yesterday

Maximum temperature yesterday: 55 °F (at 3:20 PM)
Minimum temperature yesterday: 30 °F (at 4:20 AM)
Average temperature yesterday: 45 °F

Past Weeks' High & Low Weather Summary

 TemperatureHumidityPressure
High61 °F (Apr 7, 3:20 PM)100% (Apr 7, 12:50 AM)30.45 "Hg (Apr 7, 12:50 AM)
Low27 °F (Apr 5, 4:20 AM)23% (Apr 8, 5:20 PM)29.45 "Hg (Apr 15, 5:50 PM)
Average44 °F64%30.02 "Hg
* Reported Apr 4 9:20 AM — Apr 19 9:50 AM, Sarpsborg, Weather by CustomWeather, © 2015

Note: Actual official high and low records may vary slightly from our data, if they occured in-between our weather recording intervals... More about our weather records

Advertising

Sarpsborg weather history for previous 24 hours

 ConditionsComfort  
Time TempWeatherWind HumidityBarometerVisibility
9:50 AM
Sun, Apr 19
46 °FPassing clouds.8 mph62%30.36 "HgN/A
9:20 AM45 °FSunny.8 mph66%30.36 "Hg10 mi
8:50 AM43 °FSunny.9 mph71%30.36 "Hg10 mi
8:20 AM41 °FSunny.6 mph76%30.36 "Hg10 mi
7:50 AM39 °FClear.7 mph81%30.33 "HgN/A
7:20 AM39 °FSunny.7 mph81%30.33 "Hg10 mi
6:50 AM39 °FClear.8 mph81%30.33 "Hg10 mi
6:20 AM37 °FClear.7 mph81%30.33 "Hg10 mi
5:53 AM37 °FClear.8 mph81%30.33 "Hg10 mi
5:20 AM37 °FChilly.7 mph87%30.33 "HgN/A
4:50 AM37 °FChilly.9 mph87%30.30 "HgN/A
4:20 AM39 °FChilly.9 mph81%30.30 "HgN/A
3:50 AM39 °FChilly.5 mph81%30.30 "HgN/A
3:20 AM39 °FChilly.6 mph81%30.30 "HgN/A
2:50 AM41 °FPassing clouds.8 mph76%30.30 "HgN/A
2:20 AM43 °FOvercast.10 mph71%30.30 "HgN/A
1:50 AM41 °FOvercast.10 mph81%30.30 "HgN/A
1:20 AM41 °FPassing clouds.9 mph81%30.30 "HgN/A
12:50 AM41 °FQuite cool.9 mph81%30.30 "HgN/A
12:20 AM43 °FQuite cool.9 mph76%30.27 "HgN/A
11:50 PM
Sat, Apr 18
43 °FQuite cool.10 mph76%30.27 "HgN/A
11:20 PM45 °FClear.9 mph66%30.24 "Hg10 mi
10:50 PM45 °FClear.12 mph66%30.24 "Hg10 mi
10:20 PM46 °FClear.16 mph57%30.24 "Hg10 mi
9:50 PM48 °FClear.18 mph50%30.21 "Hg10 mi
9:20 PM50 °FPassing clouds.20 mph47%30.21 "HgN/A
8:50 PM50 °FPassing clouds.16 mph43%30.18 "HgN/A
8:20 PM50 °FSunny.14 mph43%30.18 "Hg10 mi
7:50 PM52 °FSunny.13 mph41%30.18 "Hg10 mi
7:20 PM52 °FSunny.17 mph41%30.18 "Hg10 mi
6:50 PM54 °FSunny.14 mph38%30.15 "Hg10 mi
6:20 PM54 °FSunny.15 mph38%30.15 "Hg10 mi
5:50 PM55 °FPassing clouds.10 mph38%30.15 "HgN/A
5:20 PM55 °FSunny.5 mph41%30.15 "Hg10 mi
4:50 PM55 °FSunny.9 mph41%30.15 "Hg10 mi
4:20 PM54 °FSunny.10 mph41%30.15 "Hg10 mi
3:50 PM55 °FSunny.9 mph41%30.18 "Hg10 mi
3:20 PM55 °FPassing clouds.9 mph38%30.18 "HgN/A
2:50 PM54 °FPassing clouds.9 mph44%30.21 "HgN/A
2:20 PM54 °FPassing clouds.6 mph41%30.21 "HgN/A
1:50 PM52 °FPassing clouds.6 mph44%30.21 "HgN/A
1:20 PM52 °FPassing clouds.7 mph44%30.21 "HgN/A
12:50 PM52 °FSunny.8 mph47%30.24 "Hg10 mi
12:20 PM50 °FPassing clouds.6 mph50%30.24 "HgN/A
11:50 AM50 °FPassing clouds.6 mph50%30.24 "HgN/A
11:20 AM50 °FPassing clouds.5 mph50%30.27 "HgN/A
Weather by CustomWeather, © 2015

See weather overviewHow to use our weather pages